Flag for Germany Weather past 2 weeks in Esslingen, Baden-Württemberg, Germany

Now
63 °F

Scattered clouds.


Feels Like: 63 °F
Forecast: 39 / 45 °F
Wind: 17 mph from West

Location: Stuttgart-Echterdingen

Current Time: Oct 21, 2014 at 12:45:39 PM

Latest Report: Oct 21, 2014 at 12:20 PM


Visibility: N/A

Pressure: 29.92 "Hg

Humidity: 68%

Dew point: 52 °F

Location of EsslingenLocation

Historic Weather in Esslingen — Graph

°F

Esslingen temperature yesterday

Maximum temperature yesterday: 68 °F (at 1:20 PM)
Minimum temperature yesterday: 57 °F (at 1:20 AM)
Average temperature yesterday: 62 °F

Past Weeks' High & Low Weather Summary

 TemperatureHumidityPressure
High79 °F (Oct 9, 2:20 PM)100% (Oct 6, 9:50 PM)30.21 "Hg (Oct 6, 9:50 PM)
Low43 °F (Oct 18, 7:50 AM)32% (Oct 9, 3:50 PM)29.77 "Hg (Oct 7, 7:50 AM)
Average59 °F86%29.94 "Hg
* Reported Oct 6 11:20 AM — Oct 21 11:50 AM, Esslingen, Weather by CustomWeather, © 2014

Note: Actual official high and low records may vary slightly from our data, if they occured in-between our weather recording intervals... More about our weather records

Advertising

Esslingen weather history for previous 24 hours

 ConditionsComfort  
Time TempWeatherWind HumidityBarometerVisibility
11:50 AM
Oct 21
61 °FPassing clouds.10 mph72%29.92 "HgN/A
11:20 AM61 °FScattered clouds.10 mph72%29.92 "HgN/A
10:50 AM59 °FScattered clouds.13 mph82%29.92 "HgN/A
10:20 AM57 °FPassing clouds.6 mph88%29.95 "HgN/A
9:50 AM55 °FPassing clouds.2 mph94%29.95 "HgN/A
9:20 AM54 °FPartly sunny.No wind88%29.95 "HgN/A
8:50 AM52 °FPassing clouds.1 mph94%29.95 "HgN/A
8:20 AM52 °FPartly cloudy.1 mph94%29.95 "HgN/A
7:50 AM52 °FPassing clouds.No wind94%29.95 "HgN/A
7:20 AM52 °FPassing clouds.2 mph94%29.95 "HgN/A
6:50 AM52 °FPassing clouds.2 mph94%29.95 "HgN/A
6:20 AM52 °FPassing clouds.2 mph88%29.95 "HgN/A
5:50 AM54 °FPassing clouds.1 mph88%29.98 "HgN/A
5:20 AM52 °FPassing clouds.1 mph94%29.98 "HgN/A
4:50 AM52 °FPassing clouds.2 mph94%29.98 "HgN/A
4:20 AM54 °FPassing clouds.3 mph88%29.98 "HgN/A
3:50 AM54 °FPassing clouds.2 mph88%30.01 "HgN/A
3:20 AM54 °FPassing clouds.1 mph88%30.01 "HgN/A
2:50 AM55 °FPassing clouds.5 mph82%30.01 "HgN/A
2:20 AM57 °FPassing clouds.5 mph82%30.01 "HgN/A
1:50 AM57 °FPartly cloudy.7 mph82%30.01 "HgN/A
1:20 AM57 °FPassing clouds.7 mph88%30.01 "HgN/A
12:50 AM57 °FPassing clouds.7 mph88%30.01 "HgN/A
12:20 AM57 °FPartly cloudy.5 mph88%30.01 "HgN/A
11:50 PM
Oct 20
57 °FLight rain. Partly cloudy.3 mph88%30.01 "HgN/A
11:20 PM57 °FLight rain. Partly cloudy.7 mph88%30.04 "HgN/A
10:50 PM59 °FLight rain. Partly cloudy.7 mph88%30.04 "HgN/A
10:20 PM59 °FLight rain. Passing clouds.7 mph88%30.04 "HgN/A
9:50 PM59 °FLight rain. Passing clouds.6 mph88%30.04 "HgN/A
9:20 PM61 °FPassing clouds.9 mph83%30.04 "HgN/A
8:50 PM61 °FPassing clouds.2 mph88%30.04 "HgN/A
8:20 PM61 °FPassing clouds.5 mph88%30.04 "HgN/A
7:50 PM61 °FLight rain. Passing clouds.6 mph88%30.04 "HgN/A
7:20 PM63 °FLight rain. Broken clouds.6 mph77%30.04 "HgN/A
6:50 PM63 °FBroken clouds.5 mph77%30.04 "HgN/A
6:20 PM63 °FPartly sunny.7 mph77%30.07 "HgN/A
5:50 PM63 °FBroken clouds.10 mph83%30.07 "HgN/A
5:20 PM63 °FBroken clouds.5 mph83%30.07 "HgN/A
4:50 PM64 °FPartly sunny.7 mph83%30.07 "HgN/A
4:20 PM64 °FBroken clouds.7 mph83%30.07 "HgN/A
3:50 PM64 °FLight rain. Broken clouds.5 mph83%30.07 "HgN/A
3:20 PM64 °FPartly sunny.5 mph83%30.07 "HgN/A
2:50 PM64 °FPartly sunny.7 mph83%30.09 "HgN/A
2:20 PM64 °FPartly sunny.8 mph83%30.09 "HgN/A
1:50 PM68 °FBroken clouds.12 mph69%30.09 "HgN/A
1:20 PM68 °FPartly sunny.9 mph69%30.09 "HgN/A
12:50 PM66 °FPartly sunny.6 mph78%30.09 "HgN/A
12:20 PM66 °FSunny.6 mph78%30.12 "Hg10 mi
Weather by CustomWeather, © 2014

See weather overviewHow to use our weather pages